"Pseudo-MPEC" for C353462

Created 2020 Sep 19 11:07:07 UT using Find_Orb

Click here for an explanation of pseudo-MPECs

 
 Astrometry: 
     C353462  C2020 09 10.31944 23 51 06.93 -00 25 20.0    ~9A8M 21.0 GVNEOCPG96
     C353462  C2020 09 10.32462 23 51 05.10 -00 24 52.9    ~9A8M 21.1 GVNEOCPG96
     C353462  C2020 09 10.33647 23 51 00.98 -00 23 50.5    ~9A8M 21.2 GVNEOCPG96
     C353462  C2020 09 10.39837 23 50 39.41 -00 18 22.6    ~9AA7 21.7 GVNEOCPI52
     C353462  C2020 09 10.40173 23 50 38.27 -00 18 04.7    ~9AA7 21.4 GVNEOCPI52
     C353462  C2020 09 10.40509 23 50 37.08 -00 17 47.7    ~9AA7 21.2 GVNEOCPI52
     C353462  C2020 09 15rr($x!e[Y97^\6d4NMh*\J_sa02cNLuGE#KwYj28]IQ@`;.hBwr%F51
     C353462  C2020 09 15GWR.BdKpjF=5#Bg\2yOJIZjcuxQ=O$vP5N8WlcNAstrometry]/EF51
     C353462  C2020 09 15L3BmITGRXp2H3a!Y*vU[2^siP]=gF=n3_a7m.CLX0tEqOdP4``orF51
     C353462  C2020 09 16xBNY3pPredacted;m5Y*)BNU^)/3:G$Qx^GZPx1nkFNPOpX*JphJF51
     C353462  C2020 09 16%!hsHGMRKVy,N36LD_rkgt7ZYa*Gf/H.)J/Vh;\DnBs(2yLqKq^MF51
     C353462  C2020 09 16lOaK7krW!t?^x)nfD*d97u97Gdb?#j1RQ6CCbTx\t64#^!iclickF51
     C353462  C2020 09 16:IV5G7[/V^SAj+14Nsh/C?wAC;5GK%crD\L\5GM@XaHQ)N`Fj)?EF51
     C353462  C2020 09 16Z`huviG!SsqQUC4kjaeH4y_9+avK,VeN+a,Kg506ZTQF-4UmPHxkF51
     C353462  C2020 09 16D#wTi:here*x!IZhKpSP-GPdU?HoB`@$8uGriQpiR?forJuD@N`JF51
     C353462  C2020 09 18[.UE=s?eBa?]'wuVDmEv=i(\9#explanation3+g7gOlfl@+1bF*F52
     C353462  C2020 09 18E((t^LA^^M_@@!SHBj5q7U=Wa(sa2?i:mNA5fwM9\HYyIf!k0jGEF52
     C353462  C2020 09 18YX`a,Hs%7hr?/a+`5xC71v`ww+.gG/fZBMANunSf6%`ygE`VD]m/F52

Station data:
(F51) Pan-STARRS 1, Haleakala  (N20.707235 W156.255910)  US/Hawaii.
   Observers N. Primak, A. Schultz, S. Watters, J. Thiel, T. Goggia. Measurer
   PS1 Science Consortium. 1.8-m Ritchey-Chrétien + CCD.
(F52) Pan-STARRS 2, Haleakala  (N20.707384 W156.255910)  US/Hawaii. 1.8-m
   Ritchey-Chrétien + CCD.
(G96) Mt. Lemmon Survey  (N32.442754 W110.788720)  US/Arizona.  Observers T.
   A. Pruyne, B. M. Africano, E. J. Christensen, G. A. Farneth, D. C. Fuls,
   A. R. Gibbs, A. D. Grauer, H. Gröller, J. A. Johnson, R. A. Kowalski, S.
   M. Larson, G. J. Leonard, D. Rankin, R. L. Seaman, F. C. Shelly. 1.5-m
   reflector + 10K CCD.
(I52) Steward Observatory, Mt. Lemmon Station  (N32.442547 W110.788920)
   US/Arizona.  Observers T. A. Pruyne, B. M. Africano, E. J. Christensen, G.
   A. Farneth, D. C. Fuls, A. R. Gibbs, A. D. Grauer, H. Gröller, J. A.
   Johnson, R. A. Kowalski, S. M. Larson, G. J. Leonard, D. Rankin, R. L.
   Seaman, F. C. Shelly. 1.0-m reflector + CCD.

Orbital elements:  C353462
   Perihelion 2020 Jul 8.326828 +/- 0.273 TT =  7:50:38 (JD 2459038.826828)
Epoch 2020 Sep 18.0 TT = JDT 2459110.5   Earth MOID: 0.2129   AutoNEOCP
M  32.83765239 +/- 0.55             (J2000 ecliptic)
n   0.45815821 +/- 0.00606          Peri.  302.30279 +/- 0.26
a   1.66645041 +/- 0.0147           Node   349.55734 +/- 0.013
e   0.3395921 +/- 0.00498           Incl.   29.26198 +/- 0.24
P   2.15/785.74d           H 23.5   G  0.15   U  9.3  
q 1.10053700 +/- 0.00144    Q 2.23236383 +/- 0.0286
From 18 observations 2020 Sept. 10-18; mean residual 0".27
Residuals in arcseconds: 
200910 G96  .43+  .45+    200915 F51  .09-  .13+    200916 F51  .12+  .02+    
200910 G96  .06+  .10+    200915 F51  .19-  .04+    200916 F51  .17+  .35-    
200910 G96  .22+  .27-    200915 F51  .04+  .10-    200916 F51  .01-  .03-    
200910 I52  .35-  .07+    200916 F51  .10-  .09+    200918 F52  .19+  .29-    
200910 I52  .02+  .21+    200916 F51  .22+  .18-    200918 F52  .56-  .68+    
200910 I52  .36-  .55-    200916 F51  .25-  .10+    200918 F52  .41+  .25-    

Ephemerides (geocentric):
Date (UTC) HH   RA              Dec         delta   r     elong  mag " sig PA
---- -- -- --  -------------   -----------  ------ ------ -----  --- ---- ---
2020 09 19 11  23 06 36.300   +10 52 00.13  .29168 1.2874 164.1 22.1 .321  38
2020 09 19 12  23 06 26.120   +10 54 27.35  .29196 1.2876 164.0 22.2 .329  37
2020 09 19 13  23 06 15.959   +10 56 54.23  .29223 1.2878 163.9 22.2 .336  36
2020 09 19 14  23 06 05.817   +10 59 20.77  .29251 1.2880 163.9 22.2 .344  35
2020 09 19 15  23 05 55.694   +11 01 46.98  .29279 1.2882 163.8 22.2 .352  34
2020 09 19 16  23 05 45.589   +11 04 12.85  .29306 1.2884 163.7 22.2 .360  33
2020 09 19 17  23 05 35.503   +11 06 38.38  .29334 1.2885 163.7 22.2 .368  32
2020 09 19 18  23 05 25.437   +11 09 03.58  .29362 1.2887 163.6 22.2 .377  30
2020 09 19 19  23 05 15.388   +11 11 28.44  .29390 1.2889 163.5 22.2 .385  29
2020 09 19 20  23 05 05.359   +11 13 52.97  .29418 1.2891 163.4 22.2 .394  28
2020 09 19 21  23 04 55.349   +11 16 17.16  .29446 1.2893 163.4 22.2 .403  27
2020 09 19 22  23 04 45.357   +11 18 41.01  .29474 1.2894 163.3 22.2 .412  26
2020 09 19 23  23 04 35.384   +11 21 04.53  .29502 1.2896 163.2 22.2 .421  25
2020 09 20 00  23 04 25.430   +11 23 27.72  .29530 1.2898 163.2 22.2 .430  24
2020 09 20 01  23 04 15.495   +11 25 50.57  .29558 1.2900 163.1 22.2 .440  23
2020 09 20 02  23 04 05.579   +11 28 13.09  .29586 1.2902 163.0 22.2 .449  23
2020 09 20 03  23 03 55.681   +11 30 35.28  .29615 1.2904 163.0 22.2 .459  22
2020 09 20 04  23 03 45.802   +11 32 57.14  .29643 1.2905 162.9 22.2 .469  21
2020 09 20 05  23 03 35.942   +11 35 18.66  .29671 1.2907 162.8 22.2 .480  20
2020 09 20 06  23 03 26.101   +11 37 39.85  .29700 1.2909 162.8 22.2 .490  19
2020 09 20 07  23 03 16.279   +11 40 00.72  .29728 1.2911 162.7 22.2 .501  18
2020 09 20 08  23 03 06.475   +11 42 21.25  .29757 1.2913 162.6 22.2 .512  17
2020 09 20 09  23 02 56.690   +11 44 41.45  .29785 1.2914 162.5 22.2 .523  16
2020 09 20 10  23 02 46.924   +11 47 01.32  .29814 1.2916 162.5 22.2 .534  16
2020 09 20 11  23 02 37.177   +11 49 20.86  .29843 1.2918 162.4 22.3 .545  15
2020 09 20 12  23 02 27.448   +11 51 40.07  .29871 1.2920 162.3 22.3 .557  14
2020 09 20 13  23 02 17.738   +11 53 58.96  .29900 1.2922 162.3 22.3 .568  13
2020 09 20 14  23 02 08.047   +11 56 17.52  .29929 1.2924 162.2 22.3 .580  12
2020 09 20 15  23 01 58.375   +11 58 35.75  .29958 1.2925 162.1 22.3 .592  12
2020 09 20 16  23 01 48.721   +12 00 53.65  .29987 1.2927 162.1 22.3 .605  11
2020 09 20 17  23 01 39.086   +12 03 11.22  .30015 1.2929 162.0 22.3 .617  10
2020 09 20 18  23 01 29.470   +12 05 28.47  .30044 1.2931 161.9 22.3 .630  10
2020 09 20 19  23 01 19.873   +12 07 45.40  .30073 1.2933 161.9 22.3 .643   9
2020 09 20 20  23 01 10.294   +12 10 02.00  .30103 1.2935 161.8 22.3 .656   8
2020 09 20 21  23 01 00.734   +12 12 18.27  .30132 1.2936 161.7 22.3 .669   7
2020 09 20 22  23 00 51.193   +12 14 34.22  .30161 1.2938 161.6 22.3 .683   7
2020 09 20 23  23 00 41.671   +12 16 49.85  .30190 1.2940 161.6 22.3 .696   6
2020 09 21 00  23 00 32.167   +12 19 05.15  .30219 1.2942 161.5 22.3 .710   5
2020 09 21 01  23 00 22.682   +12 21 20.13  .30249 1.2944 161.4 22.3 .724   5
2020 09 21 02  23 00 13.215   +12 23 34.79  .30278 1.2945 161.4 22.3 .738   4
2020 09 21 03  23 00 03.768   +12 25 49.12  .30307 1.2947 161.3 22.3 .753   4
2020 09 21 04  22 59 54.338   +12 28 03.14  .30337 1.2949 161.2 22.3 .768   3
2020 09 21 05  22 59 44.928   +12 30 16.83  .30366 1.2951 161.2 22.3 .783   2
2020 09 21 06  22 59 35.536   +12 32 30.20  .30396 1.2953 161.1 22.3 .798   2
2020 09 21 07  22 59 26.163   +12 34 43.26  .30425 1.2955 161.0 22.3 .813   1
2020 09 21 08  22 59 16.809   +12 36 55.99  .30455 1.2956 161.0 22.3 .829   1
2020 09 21 09  22 59 07.473   +12 39 08.41  .30485 1.2958 160.9 22.3 .844   0
2020 09 21 10  22 58 58.156   +12 41 20.50  .30514 1.2960 160.8 22.3 .860   0